Regional Weather Roundup
Issued by NWS

Home | Current Version | Previous Version | Text Only | Print | Product List | Glossary Off
Versions: 1 2 3 4 5 6 7 8 9 10 11 12 13 14 15 16 17 18 19 20 21 22 23 24 25 26 27 28 29 30 31 32 33 34 35 36 37 38 39 40 41 42 43 44 45 46 47 48 49 50

000
ASUS44 KMEG 270900
RWRTN
TENNESSEE HOURLY STATE WEATHER ROUNDUP
NATIONAL WEATHER SERVICE MEMPHIS TN
300 AM CST FRI FEB 27 2015

TNZ002-004-019-021-049-052-054-088>092-271000-
WEST TENNESSEE

CITY           SKY/WX    TMP DP  RH WIND       PRES   REMARKS
MEMPHIS INTL   PTCLDY    24  12  60 NE12      30.47S WCI  13
NWS MEMPHIS      N/A     23 N/A N/A MISG        N/A
JACKSON        CLOUDY    22  13  68 N14       30.47R WCI   9
DYERSBURG      CLEAR     19   1  45 N7        30.53R WCI  10
UNION CITY     CLEAR     18  10  73 N10       30.50R WCI   6
PARIS          CLOUDY    18  12  79 N10       30.47R WCI   6
LEXINGTON      CLOUDY    23  10  58 NE10      30.43R WCI  12
SAVANNAH       CLOUDY    27  16  63 N10       30.42S WCI  17
$$

TNZ008-025-027-028-033-062-065-066-271000-
NORTH MIDDLE TENNESSEE

CITY           SKY/WX    TMP DP  RH WIND       PRES   REMARKS
NASHVILLE      CLOUDY    22  14  71 NW10      30.43R WCI  11
CLARKSVILLE    CLEAR     17  10  74 N8        30.46R WCI   7
COOKEVILLE     CLOUDY    23  16  74 N8        30.33S WCI  14
CROSSVILLE     CLOUDY    21  14  74 N12G18    30.27R WCI   9
$$

TNZ061-075-076-078-094-096-097-271000-
SOUTH MIDDLE TENNESSEE

CITY           SKY/WX    TMP DP  RH WIND       PRES   REMARKS
FAYETTEVILLE   CLOUDY    23  16  74 N15         N/A  WCI  10
TULLAHOMA      CLOUDY    23  16  74 N13       30.33R WCI  11
WINCHESTER     CLOUDY    25  19  80 N9        30.33R WCI  15
COLUMBIA         N/A     21  16  79 N6        30.39R WCI  14
SHELBYVILLE    CLOUDY    25  18  74 N15       30.38R WCI  12
$$

TNZ017-018-042-046-047-271000-
NORTHEAST TENNESSEE

CITY           SKY/WX    TMP DP  RH WIND       PRES   REMARKS
TRI CITIES     CLOUDY    29  22  75 N3        30.20R
ELIZABETHTON   PTSUNNY   28  25  86 W5        30.17R WCI  23
$$

TNZ012-013-036-069-073-074-271000-
CENTRAL EAST TENNESSEE

CITY           SKY/WX    TMP DP  RH WIND       PRES   REMARKS
KNOXVILLE      CLOUDY    30  21  69 N9        30.27R WCI  22
OAK RIDGE      MOCLDY    30  22  72 N7        30.29R WCI  23
GATLINBURG     CLOUDY    28  23  80 W3        30.25R
$$

TNZ083-085-099-271000-
SOUTHEAST TENNESSEE

CITY           SKY/WX    TMP DP  RH WIND       PRES   REMARKS
CHATTANOOGA    MOCLDY    31  22  69 N8        30.30R WCI  23
$$

SKY/WX REPORTED AS FAIR MEANS FEW OR NO CLOUDS BELOW
12 THOUSAND FEET.




USA.gov is the U.S. government's official web portal to all federal, state and local government web resources and services.